EW2108 Weather Reports


time (UTC)temp
F
wind
direction
speed
knots
gust
knots
rain 1hr
in
rain 24hr
in
rain mn
in
humidity
%
barometer
mb
20260831040051 69 94 1.7 5.2 0.00 0.01 0.01 63 1029.1
20260831034553 69 94 1.7 3.5 0.00 0.01 0.01 65 1029.3
20260831033049 69 94 2.6 5.2 0.00 0.01 0.01 65 1029.4
20260831031554 70 86 0.9 5.2 0.00 0.01 0.01 67 1029.5
20260831030053 70 44 0.9 3.5 0.00 0.01 0.01 68 1029.6
20260831024608 69 42 1.7 3.5 0.00 0.01 0.01 70 1030.0
20260831023043 69 40 2.6 4.3 0.00 0.01 0.01 71 1030.1
20260831021544 71 29 0.9 3.5 0.00 0.01 0.01 69 1030.3
20260831014557 71 23 0.9 2.6 0.00 0.01 0.01 69 1030.9
20260831013036 70 32 1.7 3.5 0.00 0.01 0.01 70 1031.1
20260831011537 69 65 1.7 3.5 0.00 0.01 0.01 71 1031.1
20260831010042 68 79 1.7 3.5 0.00 0.01 0.01 73 1031.4
20260831004526 67 96 1.7 3.5 0.00 0.01 0.01 76 1031.5
20260831003020 65 98 0.9 5.2 0.00 0.01 0.01 82 1031.6
20260831001527 64 102 1.7 3.5 0.00 0.01 0.01 86 1031.6
20260831000016 62 103 1.7 3.5 0.00 0.01 0.01 91 1031.5
20260830234521 61 104 0.0 3.5 0.00 0.01 0.01 94 1031.5
20260830233006 60 104 0.9 3.5 0.00 0.01 0.01 95 1031.4
20260830231503 59 107 0.0 0.0 0.00 0.01 0.01 96 1031.3
20260830230103 58 107 0.0 1.7 0.00 0.01 0.01 97 1031.5
20260830224558 58 107 0.0 0.0 0.00 0.01 0.01 97 1031.3
20260830223058 57 107 0.0 0.0 0.00 0.01 0.01 97 1031.3
20260830221553 57 107 0.0 0.0 0.00 0.01 0.01 97 1031.2
20260830220050 55 107 0.0 0.0 0.00 0.01 0.01 97 1031.2
20260830214553 55 107 0.0 0.0 0.00 0.01 0.01 97 1031.1
20260830213044 53 107 0.0 0.0 0.00 0.01 0.01 97 1031.1
20260830211544 52 107 0.0 0.0 0.00 0.01 0.01 97 1031.0
20260830210042 52 107 0.0 0.0 0.00 0.01 0.01 96 1030.9
20260830204540 52 107 0.0 0.0 0.00 0.01 0.01 97 1030.6
20260830203038 51 107 0.0 0.0 0.00 0.01 0.01 97 1030.4
20260830201603 51 107 0.0 0.0 0.00 0.01 0.01 97 1030.1
20260830200036 51 107 0.0 0.0 0.00 0.01 0.01 96 1030.0
20260830194535 51 107 0.0 0.0 0.00 0.01 0.01 96 1030.0
20260830193040 50 107 0.0 0.0 0.00 0.01 0.01 96 1030.0
20260830191535 51 107 0.0 0.0 0.00 0.01 0.01 96 1029.9
20260830190034 51 107 0.0 0.0 0.00 0.02 0.01 96 1030.0
20260830184533 51 107 0.0 0.0 0.00 0.02 0.01 96 1029.9
20260830183028 51 107 0.0 0.0 0.00 0.02 0.01 96 1030.0
20260830181526 51 107 0.0 0.0 0.00 0.02 0.01 96 1029.9
20260830180024 51 107 0.0 0.0 0.00 0.02 0.01 96 1030.0
20260830174526 52 107 0.0 0.0 0.00 0.02 0.01 96 1030.1
20260830173029 52 107 0.0 0.0 0.00 0.02 0.01 96 1030.0
20260830171521 52 107 0.0 0.0 0.01 0.02 0.01 96 1030.0
20260830170021 51 107 0.0 0.0 0.01 0.02 0.01 96 1030.1
20260830164518 52 107 0.0 0.0 0.01 0.02 0.01 95 1030.1
20260830163020 52 107 0.0 0.0 0.01 0.02 0.01 95 1030.2
20260830161514 52 107 0.0 0.0 0.00 0.01 0.00 95 1030.1
20260830160015 52 107 0.0 0.0 0.00 0.01 0.00 96 1030.3
20260830154511 53 107 0.0 0.0 0.00 0.01 0.00 95 1030.3
20260830153026 53 107 0.0 0.0 0.00 0.01 0.00 95 1030.4
20260830151511 53 107 0.0 0.0 0.00 0.01 0.00 95 1030.6
20260830150006 53 107 0.0 0.0 0.00 0.01 0.00 95 1030.6
20260830144506 53 107 0.0 0.0 0.00 0.01 0.00 95 1030.6
20260830143002 54 107 0.0 0.0 0.00 0.01 0.00 95 1030.7
20260830141600 54 107 0.0 0.0 0.00 0.01 0.00 95 1030.7
20260830140057 54 107 0.0 0.0 0.00 0.01 0.01 95 1030.5
20260830134559 54 107 0.0 0.0 0.00 0.01 0.01 95 1030.4
20260830133056 54 107 0.0 0.0 0.00 0.01 0.01 94 1030.3
20260830131603 55 107 0.0 0.0 0.00 0.01 0.01 95 1030.2
20260830130057 55 107 0.0 0.0 0.00 0.01 0.01 95 1030.3
20260830124600 54 107 0.0 0.0 0.00 0.01 0.01 94 1030.5
20260830123102 55 107 0.0 0.0 0.00 0.01 0.01 95 1030.6
20260830121554 54 107 0.0 1.7 0.00 0.01 0.01 94 1030.7
20260830120055 55 107 0.0 0.9 0.00 0.01 0.01 94 1030.6
20260830114558 55 107 0.0 0.0 0.00 0.01 0.01 94 1030.4
20260830113052 55 107 0.0 0.0 0.00 0.01 0.01 94 1030.4
20260830111551 55 107 0.0 0.0 0.00 0.01 0.01 94 1030.3
20260830110055 55 107 0.0 0.9 0.00 0.01 0.01 93 1030.3
20260830104550 55 107 0.0 0.0 0.00 0.01 0.01 92 1030.3
20260830103049 56 107 0.0 0.0 0.00 0.01 0.01 92 1030.2
20260830101548 56 107 0.0 0.0 0.00 0.01 0.01 92 1030.2
20260830100048 56 107 0.0 0.0 0.00 0.01 0.01 92 1030.2
20260830094606 57 107 0.0 0.0 0.00 0.01 0.01 91 1030.0
20260830093045 57 107 0.0 0.0 0.00 0.01 0.01 90 1029.9
20260830091545 58 107 0.0 0.0 0.00 0.01 0.01 89 1029.9
20260830090048 58 107 0.0 0.0 0.00 0.01 0.01 89 1029.7
20260830084543 59 107 0.0 0.9 0.00 0.01 0.01 87 1029.6
20260830083042 59 107 0.0 0.0 0.00 0.01 0.01 85 1029.4
20260830081541 60 107 0.0 0.0 0.00 0.01 0.01 83 1029.2
20260830080047 61 107 0.0 0.0 0.00 0.01 0.01 81 1029.2
20260830074540 62 107 0.0 2.6 0.00 0.01 0.01 79 1029.3
20260830073040 63 107 0.9 2.6 0.00 0.01 0.01 78 1029.1
20260830071541 64 107 1.7 3.5 0.00 0.01 0.01 78 1028.9
20260830070042 64 107 0.9 2.6 0.00 0.01 0.01 77 1028.9
20260830064545 64 107 1.7 5.2 0.00 0.01 0.01 75 1028.9
20260830063038 65 108 2.6 5.2 0.00 0.01 0.01 74 1028.7
20260830061536 65 109 2.6 7.8 0.00 0.01 0.01 74 1028.5
20260830060036 66 105 5.2 7.0 0.00 0.01 0.01 73 1028.5
20260830054544 66 104 2.6 6.1 0.00 0.01 0.01 73 1028.4
20260830053034 67 103 3.5 7.0 0.00 0.01 0.01 72 1028.6
20260830051533 67 103 4.3 7.0 0.00 0.01 0.01 72 1028.8
20260830050033 67 105 4.3 7.8 0.00 0.01 0.01 72 1028.7
20260830044532 67 111 3.5 7.0 0.00 0.01 0.01 72 1028.9
20260830043030 67 115 3.5 6.1 0.00 0.01 0.01 72 1028.9
20260830041530 67 103 3.5 8.7 0.00 0.01 0.01 72 1028.9